Vorticity
7 10 9 8 7 6 5 5 6 5 5 2 3 7 7 6 7 7 7 5 5 5 5 6 7 7 12 16 11 10 11 10 12 13 15 17 16 15 18 18 12 22 22 15 13 18 9
5 7 9 7 6 5 4 5 4 5 4 4 9 9 10 8 9 7 7 6 7 6 5 4 6 6 8 18 19 1 7 9 9 13 17 19 18 15 18 17 16 19 19 16 22 11 9
5 5 7 7 5 5 4 4 4 4 3 8 6 6 6 8 9 11 12 8 8 7 5 4 4 6 9 12 19 20 7 11 13 9 10 16 20 12 20 18 14 17 15 15 23 17 15
2 6 8 6 4 4 3 4 5 4 4 3 2 3 3 5 7 8 12 13 11 7 6 6 4 7 8 10 13 18 18 9 14 14 14 15 17 15 19 20 16 16 16 12 17 20 12
5 5 6 5 4 3 2 4 4 4 3 3 2 3 2 2 1 4 5 8 9 12 11 10 6 6 5 8 7 17 15 12 9 11 10 15 20 14 12 23 16 16 14 14 13 19 15
5 5 6 5 4 3 3 4 4 3 3 1 3 5 3 2 1 3 3 4 6 10 15 11 9 8 6 5 9 7 17 14 11 9 9 22 19 16 13 17 18 17 15 14 14 20 16
5 6 6 5 4 3 3 4 3 3 4 3 2 6 6 2 2 1 2 3 5 5 9 11 14 10 8 8 6 8 6 17 14 12 9 10 15 21 16 11 17 18 13 13 15 13 15
5 5 7 6 5 4 3 3 3 4 4 3 2 3 11 5 3 4 2 2 4 -0 5 8 6 12 15 10 10 9 8 9 15 16 12 9 11 15 18 16 11 17 16 12 14 16 9
6 6 6 -0 8 5 3 2 3 3 3 3 3 4 6 10 5 6 3 1 3 3 3 6 2 5 6 14 13 10 11 7 11 9 19 10 9 10 13 15 16 11 15 15 14 13 15
6 5 5 8 9 6 5 3 3 3 3 3 3 3 5 8 6 5 6 1 1 3 1 0 4 2 2 5 8 16 14 11 10 9 9 19 14 8 11 10 17 13 12 12 16 13 12
5 8 4 6 -1 9 6 4 3 3 3 4 3 4 4 5 6 5 5 4 0 3 5 4 1 -1 4 3 5 3 10 16 12 11 5 11 11 21 8 9 9 19 14 14 12 12 14
6 6 8 8 4 3 6 7 4 3 4 3 4 3 4 2 4 7 4 6 1 5 7 4 2 1 4 4 3 4 5 6 15 13 14 6 10 9 17 17 7 12 9 5 20 16 9
5 5 8 7 9 1 10 4 8 3 4 3 4 4 4 3 3 4 6 7 5 4 3 4 3 3 1 5 1 11 4 7 3 11 17 18 9 5 12 8 20 16 8 14 8 27 20
6 6 7 5 2 6 10 1 9 7 5 4 4 3 4 4 2 3 2 4 5 5 4 3 5 5 2 2 2 -0 7 3 5 4 8 16 16 14 6 7 13 4 15 18 13 16 32
44 2 6 6 9 7 2 5 -4 7 6 5 3 3 3 2 4 4 3 -1 4 5 6 4 4 6 5 2 4 2 1 5 5 3 4 5 6 18 16 11 7 3 10 5 12 18 14
22 6 6 5 7 10 4 1 9 6 9 4 5 4 5 3 3 5 4 2 3 5 5 4 4 6 5 5 3 6 1 7 1 0 9 4 6 8 14 14 11 10 5 4 8 7 17
38 -7 11 -2 4 11 7 8 3 4 8 4 4 7 5 3 1 4 4 4 1 5 5 4 5 4 3 5 4 0 5 2 6 2 2 13 4 5 4 6 16 11 16 6 8 5 10
56 25 1 16 28 10 3 6 3 4 8 -5 -2 7 7 6 3 3 4 4 3 5 6 5 5 5 -0 7 6 4 4 1 8 4 3 16 5 7 3 8 6 18 9 13 10 10 10
-5 4 22 18 11 9 3 8 5 11 4 7 7 6 9 8 1 3 6 5 4 4 5 5 7 4 4 8 6 9 7 4 -5 9 -2 -2 1 8 10 6 5 10 10 13 6 16 9
18 18 24 30 13 8 7 12 4 4 0 9 -2 17 0 3 3 0 6 4 5 5 6 4 7 2 7 6 8 -0 1 3 9 2 8 -1 2 6 9 5 7 4 2 9 12 9 13
11 1 -16 -8 30 14 10 12 12 3 2 10 5 5 -1 5 11 11 7 7 4 3 5 8 7 4 10 -9 14 -1 5 10 14 13 8 6 3 11 2 11 5 14 2 10 11 11 9
13 -15 8 8 7 17 24 -13 5 10 8 9 16 8 6 5 -0 13 5 4 1 6 6 10 1 9 1 -3 12 -1 3 5 8 11 12 1 9 14 9 13 11 19 12 7 8 8 13
0 -17 5 13 -1 22 20 19 11 10 10 7 8 6 3 6 10 10 6 -3 9 10 -0 5 -3 12 -8 17 4 -3 10 7 8 11 8 8 14 8 12 13 6 14 12 4 8 13 10
-4 -4 10 -1 13 6 -21 14 1 7 6 7 16 12 12 15 12 19 15 6 4 23 1 11 -6 2 26 9 6 14 16 14 13 8 8 13 13 7 6 10 7 13 17 8 6 12 10
22 18 14 13 2 4 5 8 13 9 11 8 8 17 15 13 16 19 7 21 26 12 3 2 -4 19 12 11 14 13 13 13 13 12 17 7 10 4 9 16 12 7 7 11 8 6 15
10 17 24 34 34 32 11 9 11 18 9 16 12 13 10 15 7 11 14 6 -1 -4 8 14 16 15 12 15 10 7 5 6 3 4 18 -10 2 9 0 6 7 10 7 10 3 3 4
13 20 20 17 16 15 16 13 6 9 6 15 15 14 14 15 12 16 20 17 18 19 15 15 13 16 14 4 3 2 3 4 4 3 5 1 4 2 3 5 3 3 7 7 5 12 8
13 8 9 7 5 11 11 9 9 10 12 12 16 13 18 10 8 13 18 16 7 4 3 3 2 5 1 3 2 4 2 1 5 5 5 4 3 5 7 7 3 4 10 7 10 5 6
-2 3 6 8 8 9 7 10 11 12 13 17 9 14 10 9 8 1 2 2 1 4 1 2 5 7 6 9 10 7 10 12 11 10 11 12 14 12 11 14 14 10 8 10 7 4 6
Height
5847 5845 5844 5843 5842 5841 5840 5838 5836 5834 5832 5830 5827 5823 5819 5815 5810 5805 5800 5793 5786 5779 5770 5762 5753 5743 5732 5721 5711 5704 5699 5693 5687 5681 5676 5673 5670 5670 5669 5671 5673 5679 5688 5696 5706 5719 5732
5847 5846 5845 5844 5842 5840 5839 5838 5836 5834 5832 5829 5826 5822 5819 5814 5809 5804 5798 5791 5785 5777 5769 5761 5752 5744 5733 5723 5712 5706 5700 5694 5688 5682 5677 5673 5670 5669 5669 5670 5672 5677 5685 5694 5702 5714 5725
5846 5846 5844 5843 5842 5840 5839 5838 5836 5834 5832 5829 5826 5822 5818 5814 5809 5803 5797 5790 5783 5776 5769 5761 5753 5744 5735 5726 5714 5706 5700 5694 5689 5683 5679 5674 5671 5670 5670 5671 5672 5677 5684 5691 5699 5709 5719
5845 5845 5844 5843 5841 5840 5838 5837 5835 5834 5832 5829 5827 5823 5818 5814 5808 5803 5797 5789 5783 5776 5769 5761 5754 5746 5738 5728 5718 5709 5702 5696 5691 5685 5680 5676 5673 5671 5671 5672 5673 5677 5683 5690 5698 5706 5714
5844 5843 5843 5841 5841 5840 5837 5836 5835 5833 5831 5829 5826 5823 5818 5813 5808 5803 5797 5790 5783 5776 5769 5762 5756 5747 5738 5728 5720 5712 5705 5699 5693 5688 5683 5678 5675 5673 5673 5673 5675 5678 5683 5689 5697 5702 5710
5842 5842 5841 5840 5839 5839 5837 5835 5833 5832 5829 5828 5825 5821 5818 5814 5809 5804 5798 5791 5784 5778 5771 5765 5755 5751 5742 5734 5724 5717 5709 5702 5696 5691 5686 5680 5677 5676 5675 5675 5677 5680 5684 5689 5694 5701 5707
5839 5839 5839 5838 5837 5836 5835 5834 5832 5830 5828 5825 5823 5820 5816 5813 5809 5804 5798 5792 5787 5780 5774 5766 5758 5750 5743 5737 5729 5721 5713 5706 5700 5694 5689 5684 5681 5679 5678 5678 5679 5681 5685 5689 5693 5699 5704
5834 5835 5835 5835 5835 5833 5833 5832 5830 5828 5826 5823 5821 5818 5814 5811 5807 5803 5798 5793 5788 5784 5775 5767 5760 5752 5746 5739 5732 5725 5719 5712 5705 5699 5694 5690 5686 5683 5681 5681 5682 5683 5685 5689 5694 5698 5702
5830 5830 5830 5831 5831 5830 5829 5829 5828 5826 5824 5821 5819 5816 5813 5809 5805 5802 5797 5793 5788 5783 5777 5770 5763 5756 5749 5742 5735 5729 5723 5717 5710 5704 5698 5694 5691 5687 5685 5683 5684 5685 5687 5689 5693 5697 5701
5825 5826 5825 5826 5827 5826 5825 5825 5824 5823 5821 5819 5816 5814 5810 5807 5804 5800 5796 5791 5787 5782 5777 5772 5765 5759 5753 5745 5738 5731 5724 5720 5714 5708 5704 5699 5694 5691 5689 5687 5686 5686 5688 5690 5692 5695 5698
5821 5820 5820 5820 5821 5821 5821 5820 5820 5819 5817 5815 5813 5811 5808 5805 5802 5798 5795 5790 5785 5781 5777 5772 5765 5761 5753 5748 5744 5737 5729 5721 5716 5712 5708 5703 5699 5694 5691 5690 5688 5688 5688 5689 5691 5693 5695
5814 5815 5814 5814 5815 5815 5815 5816 5815 5814 5813 5812 5810 5807 5805 5803 5800 5796 5793 5789 5785 5782 5777 5773 5767 5761 5756 5751 5745 5739 5734 5727 5719 5714 5710 5706 5702 5698 5695 5692 5690 5689 5689 5688 5688 5689 5691
5807 5808 5807 5808 5808 5809 5809 5810 5810 5809 5808 5807 5805 5804 5801 5800 5797 5794 5790 5788 5785 5779 5775 5771 5766 5762 5757 5751 5746 5741 5736 5731 5725 5719 5713 5709 5704 5700 5697 5694 5691 5689 5688 5687 5687 5686 5686
5799 5801 5801 5800 5802 5803 5802 5804 5804 5803 5802 5802 5801 5799 5797 5795 5793 5791 5788 5786 5782 5778 5773 5769 5765 5761 5756 5752 5747 5741 5736 5731 5726 5721 5715 5710 5706 5702 5698 5696 5694 5690 5688 5686 5684 5683 5681
5790 5791 5793 5792 5793 5795 5796 5796 5797 5798 5797 5796 5795 5794 5792 5790 5789 5787 5785 5782 5778 5774 5771 5766 5763 5759 5755 5750 5745 5740 5736 5732 5727 5722 5718 5712 5707 5703 5699 5695 5694 5690 5688 5686 5682 5680 5679
5778 5780 5784 5784 5784 5786 5788 5789 5789 5790 5790 5790 5789 5788 5786 5784 5783 5782 5780 5777 5773 5770 5767 5763 5759 5756 5752 5749 5744 5739 5734 5730 5727 5722 5718 5714 5709 5704 5700 5696 5693 5690 5687 5685 5681 5678 5676
5770 5770 5772 5773 5774 5776 5778 5781 5781 5782 5782 5782 5781 5780 5780 5778 5777 5776 5774 5772 5769 5766 5762 5759 5756 5752 5748 5744 5742 5738 5734 5730 5724 5720 5716 5713 5709 5705 5700 5696 5692 5688 5685 5682 5680 5677 5674
5760 5762 5762 5763 5764 5767 5770 5771 5773 5774 5774 5774 5773 5772 5772 5770 5770 5769 5768 5765 5764 5761 5756 5754 5751 5747 5743 5739 5737 5734 5730 5725 5721 5716 5713 5709 5706 5703 5699 5694 5692 5686 5683 5679 5676 5675 5672
5753 5754 5753 5755 5755 5756 5759 5762 5764 5765 5765 5765 5764 5764 5763 5762 5760 5761 5760 5758 5755 5753 5751 5747 5745 5741 5737 5735 5729 5729 5725 5723 5718 5712 5707 5705 5700 5696 5696 5692 5688 5685 5680 5676 5674 5671 5670
5742 5743 5744 5745 5747 5748 5750 5751 5754 5755 5756 5756 5754 5753 5755 5752 5751 5750 5750 5749 5747 5745 5743 5740 5738 5734 5730 5729 5725 5720 5718 5715 5713 5708 5704 5699 5699 5696 5691 5687 5681 5680 5676 5671 5669 5667 5664
5732 5735 5737 5738 5737 5739 5741 5741 5742 5745 5745 5746 5744 5743 5743 5741 5740 5740 5740 5740 5739 5735 5734 5733 5731 5726 5724 5721 5716 5713 5711 5708 5706 5702 5698 5692 5690 5688 5687 5682 5678 5675 5673 5667 5663 5661 5657
5725 5727 5728 5729 5730 5730 5731 5732 5732 5733 5734 5735 5734 5733 5732 5731 5731 5729 5729 5730 5729 5726 5724 5724 5721 5718 5716 5713 5707 5703 5700 5699 5698 5695 5690 5686 5679 5675 5679 5675 5671 5669 5666 5661 5658 5655 5651
5717 5719 5719 5720 5721 5722 5724 5724 5724 5724 5724 5723 5723 5721 5720 5721 5721 5719 5720 5718 5717 5715 5716 5714 5710 5708 5707 5702 5698 5695 5692 5689 5685 5685 5681 5677 5672 5665 5664 5664 5663 5662 5658 5654 5651 5648 5644
5708 5709 5710 5711 5712 5713 5715 5715 5714 5713 5712 5712 5711 5710 5708 5708 5708 5708 5707 5707 5705 5704 5702 5704 5700 5697 5695 5691 5688 5685 5682 5680 5678 5677 5674 5669 5665 5660 5654 5655 5650 5656 5648 5643 5640 5640 5635
5698 5698 5699 5700 5703 5705 5705 5704 5702 5701 5702 5701 5699 5698 5695 5694 5697 5698 5695 5693 5693 5692 5690 5690 5689 5686 5682 5681 5677 5673 5671 5670 5668 5667 5667 5664 5659 5654 5651 5645 5642 5648 5645 5638 5632 5635 5625
5689 5689 5689 5690 5692 5693 5694 5694 5693 5692 5691 5690 5689 5687 5685 5684 5686 5685 5684 5683 5681 5680 5679 5678 5676 5673 5672 5670 5668 5663 5661 5659 5655 5652 5652 5652 5651 5648 5645 5638 5631 5633 5633 5630 5628 5623 5621
5681 5681 5681 5682 5683 5683 5683 5683 5682 5682 5681 5680 5679 5678 5677 5674 5675 5674 5673 5670 5670 5668 5666 5667 5664 5663 5663 5660 5658 5656 5653 5650 5646 5644 5642 5638 5636 5632 5631 5625 5621 5629 5622 5620 5619 5616 5611
5672 5673 5674 5675 5674 5673 5673 5673 5672 5672 5670 5670 5669 5667 5665 5664 5664 5667 5662 5662 5659 5658 5656 5654 5652 5652 5651 5648 5645 5644 5638 5635 5631 5632 5628 5628 5624 5622 5617 5609 5608 5609 5610 5607 5605 5601 5598
5665 5665 5665 5665 5665 5665 5665 5664 5663 5663 5662 5661 5660 5658 5657 5656 5655 5654 5654 5654 5650 5647 5643 5640 5639 5637 5633 5628 5628 5623 5620 5616 5616 5614 5614 5611 5611 5604 5598 5597 5598 5597 5593 5591 5590 5588 5586